Location: Ostrava
(49.8330°N, 18.2830°E)
Time: 02:46:37
(UTC+02:00)

Envisat - Pass Details

Date: 24 January 2022
Orbit: 764 x 765 km, 98.2° (Epoch: 22 May)

Event Time Altitude Azimuth Distance (km) Brightness Sun altitude
Rises 03:11:37 0° 30° (NNE) 3,241 6.8 -41.1°
Reaches altitude 10° 03:15:17 10° 57° (ENE) 2,309 6.1 -40.6°
Maximum altitude 03:17:40 13° 86° (E) 2,089 5.8 -40.2°
Drops below altitude 10° 03:20:01 10° 114° (ESE) 2,301 5.9 -39.9°
Sets 03:23:38 0° 141° (SE) 3,221 6.5 -39.3°
